| time (UTC) | temp C | wind direction | speed KPH | gust KPH | rain 1hr cm | rain 24hr cm | rain mn cm | humidity % | barometer mb |
| 20260906195543 | 25 | 111 | 3.2 | 6.4 | 0.00 | 0.00 | 0.00 | 87 | 1016.5 |
| 20260906195042 | 25 | 133 | 1.6 | 6.4 | 0.00 | 0.00 | 0.00 | 87 | 1016.5 |
| 20260906194602 | 25 | 119 | 1.6 | 6.4 | 0.00 | 0.00 | 0.00 | 87 | 1016.6 |
| 20260906194043 | 25 | 108 | 1.6 | 6.4 | 0.00 | 0.00 | 0.00 | 87 | 1016.6 |
| 20260906193543 | 26 | 0 | 1.6 | 6.4 | 0.00 | 0.00 | 0.00 | 86 | 1016.7 |
| 20260906193101 | 26 | 117 | 1.6 | 6.4 | 0.00 | 0.00 | 0.00 | 86 | 1016.8 |
| 20260906192542 | 26 | 0 | 0.0 | 6.4 | 0.00 | 0.00 | 0.00 | 87 | 1016.8 |
| 20260906192043 | 26 | 107 | 0.0 | 6.4 | 0.00 | 0.00 | 0.00 | 88 | 1016.9 |
| 20260906191602 | 25 | 111 | 0.0 | 4.8 | 0.00 | 0.00 | 0.00 | 88 | 1017.0 |
| 20260906191043 | 25 | 0 | 0.0 | 8.0 | 0.00 | 0.00 | 0.00 | 88 | 1016.8 |
| 20260906190543 | 25 | 0 | 0.0 | 9.7 | 0.00 | 0.00 | 0.00 | 88 | 1016.9 |
| 20260906190116 | 25 | 144 | 0.0 | 9.7 | 0.00 | 0.00 | 0.00 | 88 | 1017.0 |
| 20260906185542 | 25 | 0 | 0.0 | 9.7 | 0.00 | 0.00 | 0.00 | 88 | 1017.0 |
| 20260906185042 | 25 | 0 | 1.6 | 9.7 | 0.00 | 0.00 | 0.00 | 88 | 1017.1 |
| 20260906184555 | 25 | 127 | 0.0 | 9.7 | 0.00 | 0.00 | 0.00 | 88 | 1017.2 |
| 20260906184043 | 25 | 137 | 0.0 | 6.4 | 0.00 | 0.00 | 0.00 | 87 | 1017.1 |
| 20260906183544 | 26 | 0 | 0.0 | 6.4 | 0.00 | 0.00 | 0.00 | 88 | 1017.2 |
| 20260906183105 | 26 | 0 | 0.0 | 6.4 | 0.00 | 0.00 | 0.00 | 88 | 1017.1 |
| 20260906182543 | 26 | 0 | 0.0 | 4.8 | 0.00 | 0.00 | 0.00 | 88 | 1017.1 |
| 20260906182046 | 26 | 0 | 0.0 | 6.4 | 0.00 | 0.00 | 0.00 | 89 | 1017.1 |
| 20260906181605 | 26 | 0 | 0.0 | 6.4 | 0.00 | 0.00 | 0.00 | 88 | 1017.0 |
| 20260906181042 | 26 | 169 | 0.0 | 6.4 | 0.00 | 0.00 | 0.00 | 88 | 1017.0 |
| 20260906180543 | 26 | 128 | 0.0 | 4.8 | 0.00 | 0.00 | 0.00 | 88 | 1017.0 |
| 20260906180056 | 26 | 0 | 0.0 | 4.8 | 0.00 | 0.00 | 0.00 | 88 | 1017.1 |
| 20260906175542 | 26 | 114 | 0.0 | 4.8 | 0.00 | 0.00 | 0.00 | 88 | 1017.0 |
| 20260906175043 | 26 | 0 | 0.0 | 4.8 | 0.00 | 0.00 | 0.00 | 88 | 1017.1 |
| 20260906174552 | 26 | 0 | 0.0 | 4.8 | 0.00 | 0.00 | 0.00 | 88 | 1017.2 |
| 20260906174043 | 26 | 0 | 0.0 | 4.8 | 0.00 | 0.00 | 0.00 | 88 | 1017.1 |
| 20260906173542 | 26 | 0 | 0.0 | 4.8 | 0.00 | 0.00 | 0.00 | 88 | 1017.3 |
| 20260906173058 | 25 | 0 | 1.6 | 4.8 | 0.00 | 0.00 | 0.00 | 87 | 1017.4 |
| 20260906172544 | 26 | 107 | 1.6 | 6.4 | 0.00 | 0.00 | 0.00 | 87 | 1017.3 |
| 20260906172042 | 25 | 0 | 0.0 | 6.4 | 0.00 | 0.00 | 0.00 | 88 | 1017.5 |
| 20260906171556 | 25 | 132 | 0.0 | 9.7 | 0.00 | 0.00 | 0.00 | 88 | 1017.5 |
| 20260906171042 | 25 | 0 | 0.0 | 9.7 | 0.00 | 0.00 | 0.00 | 90 | 1017.7 |
| 20260906170542 | 24 | 115 | 0.0 | 6.4 | 0.00 | 0.00 | 0.00 | 89 | 1017.8 |
| 20260906170106 | 24 | 126 | 3.2 | 6.4 | 0.00 | 0.00 | 0.00 | 88 | 1017.9 |
| 20260906165543 | 24 | 144 | 1.6 | 6.4 | 0.00 | 0.00 | 0.00 | 89 | 1018.1 |
| 20260906165042 | 24 | 109 | 0.0 | 6.4 | 0.00 | 0.00 | 0.00 | 88 | 1018.2 |
| 20260906164601 | 24 | 0 | 0.0 | 4.8 | 0.00 | 0.00 | 0.00 | 90 | 1018.3 |
| 20260906164042 | 23 | 0 | 0.0 | 4.8 | 0.00 | 0.00 | 0.00 | 91 | 1018.2 |
| 20260906163540 | 23 | 0 | 0.0 | 11.3 | 0.00 | 0.00 | 0.00 | 90 | 1018.1 |
| 20260906163101 | 23 | 111 | 1.6 | 11.3 | 0.00 | 0.00 | 0.00 | 90 | 1018.1 |
| 20260906162543 | 23 | 0 | 0.0 | 6.4 | 0.00 | 0.00 | 0.00 | 91 | 1018.1 |
| 20260906162042 | 23 | 138 | 1.6 | 6.4 | 0.00 | 0.00 | 0.00 | 90 | 1018.0 |
| 20260906161602 | 23 | 110 | 0.0 | 4.8 | 0.00 | 0.00 | 0.00 | 91 | 1018.1 |
| 20260906161043 | 23 | 0 | 0.0 | 4.8 | 0.00 | 0.00 | 0.00 | 92 | 1018.1 |
| 20260906160542 | 22 | 98 | 0.0 | 4.8 | 0.00 | 0.00 | 0.00 | 93 | 1018.2 |
| 20260906160113 | 22 | 0 | 1.6 | 6.4 | 0.00 | 0.00 | 0.00 | 93 | 1018.3 |
| 20260906155543 | 22 | 115 | 1.6 | 6.4 | 0.00 | 0.00 | 0.00 | 93 | 1018.3 |
| 20260906155042 | 22 | 107 | 3.2 | 4.8 | 0.00 | 0.00 | 0.00 | 93 | 1018.2 |
| 20260906154603 | 21 | 104 | 1.6 | 4.8 | 0.00 | 0.00 | 0.00 | 94 | 1018.3 |
| 20260906154042 | 21 | 105 | 0.0 | 4.8 | 0.00 | 0.00 | 0.00 | 94 | 1018.3 |
| 20260906153542 | 21 | 101 | 3.2 | 6.4 | 0.00 | 0.00 | 0.00 | 94 | 1018.3 |
| 20260906153100 | 21 | 119 | 1.6 | 6.4 | 0.00 | 0.00 | 0.00 | 94 | 1018.3 |
| 20260906152542 | 21 | 115 | 1.6 | 6.4 | 0.00 | 0.00 | 0.00 | 95 | 1018.3 |
| 20260906152042 | 21 | 121 | 1.6 | 6.4 | 0.00 | 0.00 | 0.00 | 95 | 1018.4 |
| 20260906151604 | 21 | 117 | 1.6 | 6.4 | 0.00 | 0.00 | 0.00 | 95 | 1018.3 |
| 20260906151042 | 21 | 111 | 1.6 | 6.4 | 0.00 | 0.00 | 0.00 | 95 | 1018.4 |
| 20260906150542 | 21 | 109 | 0.0 | 6.4 | 0.00 | 0.00 | 0.00 | 95 | 1018.3 |
| 20260906150105 | 21 | 0 | 0.0 | 6.4 | 0.00 | 0.00 | 0.00 | 96 | 1018.3 |
| 20260906145543 | 21 | 0 | 1.6 | 6.4 | 0.00 | 0.00 | 0.00 | 96 | 1018.2 |
| 20260906145043 | 21 | 167 | 1.6 | 4.8 | 0.00 | 0.00 | 0.00 | 96 | 1018.2 |
| 20260906144555 | 20 | 0 | 1.6 | 4.8 | 0.00 | 0.00 | 0.00 | 96 | 1018.3 |
| 20260906144042 | 20 | 0 | 0.0 | 6.4 | 0.00 | 0.00 | 0.00 | 96 | 1018.4 |
| 20260906143543 | 20 | 119 | 1.6 | 6.4 | 0.00 | 0.00 | 0.00 | 96 | 1018.6 |
| 20260906143104 | 20 | 100 | 1.6 | 6.4 | 0.00 | 0.00 | 0.00 | 96 | 1018.5 |
| 20260906142543 | 20 | 110 | 1.6 | 6.4 | 0.00 | 0.00 | 0.00 | 97 | 1018.5 |
| 20260906142043 | 20 | 119 | 1.6 | 6.4 | 0.00 | 0.00 | 0.00 | 96 | 1018.6 |
| 20260906141604 | 20 | 116 | 1.6 | 6.4 | 0.00 | 0.00 | 0.00 | 97 | 1018.7 |
| 20260906141040 | 20 | 111 | 1.6 | 6.4 | 0.00 | 0.00 | 0.00 | 97 | 1018.7 |
| 20260906140543 | 20 | 123 | 1.6 | 6.4 | 0.00 | 0.00 | 0.00 | 97 | 1018.7 |
| 20260906140057 | 20 | 112 | 3.2 | 6.4 | 0.00 | 0.00 | 0.00 | 97 | 1018.7 |
| 20260906135542 | 20 | 0 | 3.2 | 6.4 | 0.00 | 0.00 | 0.00 | 97 | 1018.4 |
| 20260906135042 | 20 | 130 | 1.6 | 6.4 | 0.00 | 0.00 | 0.00 | 98 | 1018.4 |
| 20260906134603 | 20 | 136 | 3.2 | 6.4 | 0.00 | 0.00 | 0.00 | 98 | 1018.5 |
| 20260906134040 | 20 | 113 | 3.2 | 6.4 | 0.00 | 0.00 | 0.00 | 98 | 1018.6 |
| 20260906133542 | 20 | 115 | 0.0 | 4.8 | 0.00 | 0.00 | 0.00 | 98 | 1018.7 |
| 20260906133123 | 20 | 0 | 0.0 | 6.4 | 0.00 | 0.00 | 0.00 | 98 | 1018.8 |
| 20260906132543 | 20 | 0 | 1.6 | 6.4 | 0.00 | 0.00 | 0.00 | 98 | 1018.7 |
| 20260906132043 | 20 | 0 | 0.0 | 6.4 | 0.00 | 0.00 | 0.00 | 98 | 1018.7 |
| 20260906131605 | 19 | 0 | 0.0 | 6.4 | 0.00 | 0.00 | 0.00 | 98 | 1018.8 |
| 20260906131042 | 19 | 0 | 0.0 | 6.4 | 0.00 | 0.00 | 0.00 | 98 | 1019.0 |
| 20260906130540 | 19 | 0 | 0.0 | 4.8 | 0.00 | 0.00 | 0.00 | 98 | 1019.1 |
| 20260906130058 | 19 | 0 | 0.0 | 4.8 | 0.00 | 0.00 | 0.00 | 98 | 1019.1 |
| 20260906125539 | 19 | 111 | 0.0 | 3.2 | 0.00 | 0.00 | 0.00 | 98 | 1019.0 |
| 20260906125039 | 19 | 0 | 0.0 | 4.8 | 0.00 | 0.00 | 0.00 | 98 | 1019.0 |
| 20260906124610 | 18 | 0 | 0.0 | 4.8 | 0.00 | 0.00 | 0.00 | 98 | 1019.0 |
| 20260906124043 | 18 | 0 | 0.0 | 4.8 | 0.00 | 0.00 | 0.00 | 98 | 1018.7 |
| 20260906123547 | 18 | 107 | 0.0 | 6.4 | 0.00 | 0.00 | 0.00 | 98 | 1018.6 |
| 20260906123053 | 18 | 0 | 0.0 | 6.4 | 0.00 | 0.00 | 0.00 | 98 | 1018.7 |
| 20260906122542 | 18 | 107 | 0.0 | 4.8 | 0.00 | 0.00 | 0.00 | 98 | 1018.7 |
| 20260906122042 | 18 | 0 | 0.0 | 3.2 | 0.00 | 0.00 | 0.00 | 98 | 1018.5 |
| 20260906121602 | 18 | 0 | 0.0 | 0.0 | 0.00 | 0.00 | 0.00 | 98 | 1018.5 |
| 20260906121042 | 18 | 0 | 0.0 | 0.0 | 0.00 | 0.00 | 0.00 | 98 | 1018.7 |
| 20260906120542 | 18 | 0 | 0.0 | 0.0 | 0.00 | 0.00 | 0.00 | 98 | 1018.7 |
| 20260906120056 | 18 | 0 | 0.0 | 0.0 | 0.00 | 0.00 | 0.00 | 98 | 1018.8 |
| 20260906115542 | 18 | 0 | 0.0 | 0.0 | 0.00 | 0.00 | 0.00 | 98 | 1018.4 |
| 20260906115041 | 18 | 0 | 0.0 | 3.2 | 0.00 | 0.00 | 0.00 | 98 | 1018.4 |
| 20260906114611 | 18 | 0 | 0.0 | 4.8 | 0.00 | 0.00 | 0.00 | 98 | 1018.3 |
| 20260906114038 | 18 | 107 | 0.0 | 4.8 | 0.00 | 0.00 | 0.00 | 98 | 1018.1 |
| 20260906113542 | 18 | 125 | 0.0 | 1.6 | 0.00 | 0.00 | 0.00 | 98 | 1018.1 |
| 20260906113101 | 18 | 0 | 0.0 | 3.2 | 0.00 | 0.00 | 0.00 | 98 | 1018.3 |
| 20260906112542 | 18 | 0 | 0.0 | 3.2 | 0.00 | 0.00 | 0.00 | 98 | 1018.3 |
| 20260906112042 | 18 | 0 | 0.0 | 3.2 | 0.00 | 0.00 | 0.00 | 98 | 1018.2 |
| 20260906111603 | 18 | 0 | 0.0 | 3.2 | 0.00 | 0.00 | 0.00 | 98 | 1018.2 |
| 20260906111042 | 18 | 0 | 0.0 | 3.2 | 0.00 | 0.00 | 0.00 | 98 | 1018.2 |
| 20260906110546 | 18 | 0 | 0.0 | 3.2 | 0.00 | 0.00 | 0.00 | 98 | 1018.0 |
| 20260906110053 | 18 | 0 | 0.0 | 3.2 | 0.00 | 0.00 | 0.00 | 98 | 1018.1 |
| 20260906105541 | 18 | 0 | 0.0 | 4.8 | 0.00 | 0.00 | 0.00 | 98 | 1018.1 |
| 20260906105041 | 18 | 0 | 0.0 | 4.8 | 0.00 | 0.00 | 0.00 | 98 | 1018.0 |
| 20260906104629 | 18 | 123 | 0.0 | 4.8 | 0.00 | 0.00 | 0.00 | 98 | 1018.0 |
| 20260906104042 | 18 | 0 | 0.0 | 4.8 | 0.00 | 0.00 | 0.00 | 98 | 1017.9 |
| 20260906103542 | 18 | 0 | 0.0 | 4.8 | 0.00 | 0.00 | 0.00 | 98 | 1018.0 |
| 20260906103057 | 18 | 0 | 0.0 | 3.2 | 0.00 | 0.00 | 0.00 | 98 | 1018.0 |
| 20260906102542 | 18 | 0 | 0.0 | 1.6 | 0.00 | 0.00 | 0.00 | 98 | 1018.0 |
| 20260906102043 | 18 | 0 | 0.0 | 0.0 | 0.00 | 0.00 | 0.00 | 98 | 1018.1 |
| 20260906101600 | 18 | 0 | 0.0 | 3.2 | 0.00 | 0.00 | 0.00 | 98 | 1018.3 |
| 20260906101041 | 18 | 0 | 0.0 | 4.8 | 0.00 | 0.00 | 0.00 | 98 | 1018.3 |
| 20260906100539 | 18 | 0 | 0.0 | 4.8 | 0.00 | 0.00 | 0.00 | 97 | 1018.2 |
| 20260906100051 | 18 | 114 | 0.0 | 4.8 | 0.00 | 0.00 | 0.00 | 98 | 1018.1 |
| 20260906095543 | 18 | 108 | 1.6 | 4.8 | 0.00 | 0.00 | 0.00 | 98 | 1018.1 |
| 20260906095042 | 18 | 113 | 0.0 | 4.8 | 0.00 | 0.00 | 0.00 | 98 | 1018.1 |
| 20260906094600 | 18 | 0 | 0.0 | 4.8 | 0.00 | 0.00 | 0.00 | 97 | 1018.1 |
| 20260906094042 | 18 | 0 | 1.6 | 4.8 | 0.00 | 0.00 | 0.00 | 97 | 1018.0 |
| 20260906093542 | 18 | 0 | 0.0 | 1.6 | 0.00 | 0.00 | 0.00 | 97 | 1018.0 |
| 20260906093113 | 18 | 0 | 0.0 | 4.8 | 0.00 | 0.00 | 0.00 | 97 | 1017.9 |
| 20260906092539 | 18 | 0 | 0.0 | 4.8 | 0.00 | 0.00 | 0.00 | 97 | 1017.9 |
| 20260906092042 | 18 | 114 | 0.0 | 4.8 | 0.00 | 0.00 | 0.00 | 97 | 1017.8 |
| 20260906091556 | 18 | 104 | 0.0 | 4.8 | 0.00 | 0.00 | 0.00 | 97 | 1017.8 |
| 20260906091039 | 18 | 0 | 0.0 | 4.8 | 0.00 | 0.00 | 0.00 | 97 | 1017.9 |
| 20260906090540 | 18 | 110 | 0.0 | 4.8 | 0.00 | 0.00 | 0.00 | 97 | 1017.9 |
| 20260906090054 | 18 | 0 | 0.0 | 4.8 | 0.00 | 0.00 | 0.00 | 97 | 1017.8 |
| 20260906085541 | 18 | 0 | 0.0 | 4.8 | 0.00 | 0.00 | 0.00 | 97 | 1018.0 |
| 20260906085043 | 18 | 0 | 0.0 | 3.2 | 0.00 | 0.00 | 0.00 | 97 | 1017.9 |
| 20260906084601 | 18 | 0 | 0.0 | 3.2 | 0.00 | 0.00 | 0.00 | 96 | 1018.1 |
| 20260906084039 | 18 | 0 | 0.0 | 3.2 | 0.00 | 0.00 | 0.00 | 96 | 1018.0 |
| 20260906083540 | 18 | 0 | 0.0 | 0.0 | 0.00 | 0.00 | 0.00 | 96 | 1017.8 |
| 20260906083056 | 18 | 0 | 0.0 | 0.0 | 0.00 | 0.00 | 0.00 | 96 | 1017.8 |
| 20260906082539 | 18 | 0 | 0.0 | 0.0 | 0.00 | 0.00 | 0.00 | 96 | 1017.8 |
| 20260906082041 | 18 | 0 | 0.0 | 0.0 | 0.00 | 0.00 | 0.00 | 96 | 1017.6 |
| 20260906081553 | 18 | 0 | 0.0 | 0.0 | 0.00 | 0.00 | 0.00 | 96 | 1017.7 |
| 20260906081039 | 18 | 0 | 0.0 | 1.6 | 0.00 | 0.00 | 0.00 | 95 | 1017.6 |
| 20260906080542 | 18 | 0 | 0.0 | 1.6 | 0.00 | 0.00 | 0.00 | 95 | 1017.4 |
| 20260906080054 | 18 | 0 | 0.0 | 0.0 | 0.00 | 0.00 | 0.00 | 95 | 1017.4 |
| 20260906075540 | 18 | 0 | 0.0 | 4.8 | 0.00 | 0.00 | 0.00 | 95 | 1017.3 |
| 20260906075039 | 18 | 0 | 0.0 | 4.8 | 0.00 | 0.00 | 0.00 | 95 | 1017.2 |
| 20260906074604 | 18 | 0 | 0.0 | 4.8 | 0.00 | 0.00 | 0.00 | 95 | 1017.4 |
| 20260906074040 | 18 | 0 | 0.0 | 6.4 | 0.00 | 0.00 | 0.00 | 95 | 1017.4 |
| 20260906073540 | 19 | 0 | 0.0 | 6.4 | 0.00 | 0.00 | 0.00 | 95 | 1017.4 |
| 20260906073057 | 19 | 0 | 0.0 | 6.4 | 0.00 | 0.00 | 0.00 | 95 | 1017.4 |
| 20260906072540 | 19 | 0 | 0.0 | 6.4 | 0.00 | 0.00 | 0.00 | 94 | 1017.4 |
| 20260906072040 | 19 | 0 | 0.0 | 6.4 | 0.00 | 0.00 | 0.00 | 94 | 1017.4 |
| 20260906071557 | 19 | 78 | 0.0 | 4.8 | 0.00 | 0.00 | 0.00 | 94 | 1017.4 |
| 20260906071040 | 19 | 113 | 1.6 | 6.4 | 0.00 | 0.00 | 0.00 | 94 | 1017.4 |
| 20260906070540 | 19 | 93 | 0.0 | 6.4 | 0.00 | 0.00 | 0.00 | 94 | 1017.4 |
| 20260906070107 | 19 | 104 | 1.6 | 6.4 | 0.00 | 0.00 | 0.00 | 94 | 1017.6 |
| 20260906065543 | 19 | 106 | 0.0 | 6.4 | 0.00 | 0.00 | 0.00 | 94 | 1017.7 |
| 20260906065040 | 19 | 0 | 0.0 | 6.4 | 0.00 | 0.00 | 0.00 | 94 | 1017.8 |
| 20260906064556 | 19 | 0 | 1.6 | 4.8 | 0.00 | 0.00 | 0.00 | 94 | 1017.8 |
| 20260906064039 | 19 | 107 | 1.6 | 4.8 | 0.00 | 0.00 | 0.00 | 94 | 1017.9 |
| 20260906063538 | 19 | 121 | 0.0 | 4.8 | 0.00 | 0.00 | 0.00 | 94 | 1018.0 |
| 20260906063102 | 19 | 0 | 0.0 | 3.2 | 0.00 | 0.00 | 0.00 | 94 | 1018.1 |
| 20260906062538 | 19 | 0 | 0.0 | 3.2 | 0.00 | 0.00 | 0.00 | 94 | 1018.3 |
| 20260906062039 | 19 | 0 | 0.0 | 3.2 | 0.00 | 0.00 | 0.00 | 94 | 1018.3 |
| 20260906061558 | 19 | 110 | 0.0 | 1.6 | 0.00 | 0.00 | 0.00 | 94 | 1018.2 |
| 20260906061039 | 19 | 0 | 0.0 | 1.6 | 0.00 | 0.00 | 0.00 | 94 | 1018.2 |
| 20260906060538 | 20 | 0 | 0.0 | 4.8 | 0.00 | 0.00 | 0.00 | 93 | 1018.2 |
| 20260906060103 | 20 | 0 | 0.0 | 4.8 | 0.00 | 0.00 | 0.00 | 94 | 1018.1 |
| 20260906055540 | 19 | 0 | 0.0 | 1.6 | 0.00 | 0.00 | 0.00 | 94 | 1018.1 |
| 20260906055040 | 19 | 0 | 0.0 | 0.0 | 0.00 | 0.00 | 0.00 | 94 | 1018.1 |
| 20260906054606 | 19 | 0 | 0.0 | 0.0 | 0.00 | 0.00 | 0.00 | 94 | 1018.1 |
| 20260906054040 | 19 | 0 | 0.0 | 1.6 | 0.00 | 0.00 | 0.00 | 94 | 1018.0 |
| 20260906053539 | 19 | 0 | 0.0 | 1.6 | 0.00 | 0.00 | 0.00 | 94 | 1018.1 |
| 20260906053054 | 19 | 0 | 0.0 | 1.6 | 0.00 | 0.00 | 0.00 | 94 | 1018.1 |
| 20260906052542 | 19 | 0 | 0.0 | 1.6 | 0.00 | 0.00 | 0.00 | 93 | 1018.1 |
| 20260906052040 | 19 | 0 | 0.0 | 3.2 | 0.00 | 0.00 | 0.00 | 93 | 1018.2 |
| 20260906051603 | 19 | 0 | 0.0 | 3.2 | 0.00 | 0.00 | 0.00 | 93 | 1018.2 |
| 20260906051039 | 19 | 0 | 0.0 | 3.2 | 0.00 | 0.00 | 0.00 | 93 | 1018.2 |
| 20260906050541 | 19 | 0 | 0.0 | 0.0 | 0.00 | 0.00 | 0.00 | 93 | 1018.3 |
| 20260906050123 | 19 | 0 | 0.0 | 1.6 | 0.00 | 0.00 | 0.00 | 93 | 1018.4 |
| 20260906045539 | 19 | 0 | 0.0 | 1.6 | 0.00 | 0.00 | 0.00 | 93 | 1018.5 |
| 20260906045042 | 19 | 0 | 0.0 | 4.8 | 0.00 | 0.00 | 0.00 | 93 | 1018.3 |
| 20260906044559 | 19 | 0 | 0.0 | 4.8 | 0.00 | 0.00 | 0.00 | 94 | 1018.4 |
| 20260906044043 | 19 | 114 | 0.0 | 0.0 | 0.00 | 0.00 | 0.00 | 93 | 1018.5 |
| 20260906043544 | 19 | 0 | 0.0 | 3.2 | 0.00 | 0.00 | 0.00 | 93 | 1018.5 |
| 20260906043100 | 19 | 0 | 0.0 | 3.2 | 0.00 | 0.00 | 0.00 | 93 | 1018.5 |
| 20260906042542 | 20 | 0 | 0.0 | 1.6 | 0.00 | 0.00 | 0.00 | 93 | 1018.6 |
| 20260906042043 | 20 | 0 | 0.0 | 0.0 | 0.00 | 0.00 | 0.00 | 93 | 1018.6 |
| 20260906041602 | 20 | 0 | 0.0 | 0.0 | 0.00 | 0.00 | 0.00 | 93 | 1018.7 |
| 20260906041043 | 20 | 0 | 0.0 | 0.0 | 0.00 | 0.00 | 0.00 | 92 | 1018.6 |
| 20260906040544 | 20 | 0 | 0.0 | 0.0 | 0.00 | 0.00 | 0.00 | 92 | 1018.6 |
| 20260906040135 | 20 | 0 | 0.0 | 0.0 | 0.00 | 0.00 | 0.00 | 93 | 1018.6 |
| 20260906035543 | 20 | 0 | 0.0 | 0.0 | 0.00 | 0.00 | 0.00 | 93 | 1018.7 |
| 20260906035044 | 20 | 0 | 0.0 | 0.0 | 0.00 | 0.00 | 0.00 | 93 | 1018.6 |
| 20260906034603 | 20 | 0 | 0.0 | 0.0 | 0.00 | 0.00 | 0.00 | 92 | 1018.6 |
| 20260906034044 | 20 | 0 | 0.0 | 0.0 | 0.00 | 0.00 | 0.00 | 92 | 1018.5 |
| 20260906033543 | 20 | 0 | 0.0 | 0.0 | 0.00 | 0.00 | 0.00 | 92 | 1018.5 |
| 20260906033109 | 20 | 0 | 0.0 | 1.6 | 0.00 | 0.00 | 0.00 | 92 | 1018.1 |
| 20260906032547 | 20 | 0 | 0.0 | 1.6 | 0.00 | 0.00 | 0.00 | 92 | 1018.1 |
| 20260906032044 | 20 | 0 | 0.0 | 4.8 | 0.00 | 0.00 | 0.00 | 92 | 1018.0 |
| 20260906031605 | 20 | 0 | 0.0 | 6.4 | 0.00 | 0.00 | 0.00 | 92 | 1018.0 |
| 20260906031044 | 21 | 0 | 0.0 | 9.7 | 0.00 | 0.00 | 0.00 | 92 | 1018.0 |
| 20260906030544 | 21 | 109 | 0.0 | 9.7 | 0.00 | 0.00 | 0.00 | 91 | 1017.9 |
| 20260906030106 | 21 | 0 | 0.0 | 4.8 | 0.00 | 0.00 | 0.00 | 91 | 1017.9 |
| 20260906025543 | 21 | 0 | 0.0 | 4.8 | 0.00 | 0.00 | 0.00 | 91 | 1017.8 |
| 20260906025044 | 21 | 0 | 0.0 | 4.8 | 0.00 | 0.00 | 0.00 | 91 | 1017.7 |
| 20260906024618 | 21 | 0 | 1.6 | 6.4 | 0.00 | 0.00 | 0.00 | 91 | 1017.5 |
| 20260906024044 | 21 | 0 | 1.6 | 6.4 | 0.00 | 0.00 | 0.00 | 91 | 1017.4 |
| 20260906023543 | 21 | 122 | 1.6 | 6.4 | 0.00 | 0.00 | 0.00 | 91 | 1017.4 |
| 20260906023102 | 21 | 114 | 1.6 | 6.4 | 0.00 | 0.00 | 0.00 | 90 | 1017.5 |
| 20260906022545 | 21 | 119 | 0.0 | 6.4 | 0.00 | 0.00 | 0.00 | 90 | 1017.5 |
| 20260906022044 | 21 | 120 | 1.6 | 6.4 | 0.00 | 0.00 | 0.00 | 90 | 1017.4 |
| 20260906021605 | 21 | 107 | 1.6 | 6.4 | 0.00 | 0.00 | 0.00 | 90 | 1017.3 |
| 20260906021044 | 21 | 0 | 0.0 | 6.4 | 0.00 | 0.00 | 0.00 | 89 | 1017.4 |
| 20260906020546 | 21 | 121 | 1.6 | 6.4 | 0.00 | 0.00 | 0.00 | 90 | 1017.3 |
| 20260906020101 | 21 | 0 | 1.6 | 4.8 | 0.00 | 0.00 | 0.00 | 90 | 1017.2 |
| 20260906015544 | 21 | 139 | 1.6 | 4.8 | 0.00 | 0.00 | 0.00 | 90 | 1017.3 |
| 20260906015044 | 21 | 114 | 0.0 | 4.8 | 0.00 | 0.00 | 0.00 | 90 | 1017.3 |
| 20260906014607 | 21 | 0 | 0.0 | 3.2 | 0.00 | 0.00 | 0.00 | 89 | 1017.4 |
| 20260906014044 | 22 | 0 | 0.0 | 4.8 | 0.00 | 0.00 | 0.00 | 89 | 1017.5 |
| 20260906013544 | 22 | 109 | 0.0 | 4.8 | 0.00 | 0.00 | 0.00 | 89 | 1017.5 |
| 20260906013053 | 22 | 0 | 0.0 | 3.2 | 0.00 | 0.00 | 0.00 | 89 | 1017.5 |
| 20260906012545 | 22 | 0 | 0.0 | 3.2 | 0.00 | 0.00 | 0.00 | 90 | 1017.5 |
| 20260906012043 | 22 | 0 | 0.0 | 3.2 | 0.00 | 0.00 | 0.00 | 90 | 1017.5 |
| 20260906011557 | 22 | 0 | 0.0 | 3.2 | 0.00 | 0.00 | 0.00 | 89 | 1017.5 |
| 20260906011044 | 22 | 0 | 0.0 | 3.2 | 0.00 | 0.00 | 0.00 | 89 | 1017.5 |
| 20260906010543 | 22 | 0 | 0.0 | 1.6 | 0.00 | 0.00 | 0.00 | 89 | 1017.5 |
| 20260906005543 | 22 | 0 | 0.0 | 0.0 | 0.00 | 0.00 | 0.00 | 88 | 1017.4 |
| 20260906005043 | 22 | 0 | 0.0 | 1.6 | 0.00 | 0.00 | 0.00 | 88 | 1017.6 |
| 20260906004556 | 22 | 0 | 0.0 | 1.6 | 0.00 | 0.00 | 0.00 | 88 | 1017.4 |
| 20260906004043 | 22 | 0 | 0.0 | 1.6 | 0.00 | 0.00 | 0.00 | 87 | 1017.3 |
| 20260906003544 | 23 | 0 | 0.0 | 1.6 | 0.00 | 0.00 | 0.00 | 87 | 1017.1 |
| 20260906003057 | 23 | 109 | 0.0 | 3.2 | 0.00 | 0.00 | 0.00 | 86 | 1016.9 |
| 20260906002543 | 23 | 0 | 0.0 | 3.2 | 0.00 | 0.00 | 0.00 | 86 | 1016.6 |
| 20260906002043 | 23 | 0 | 0.0 | 3.2 | 0.00 | 0.00 | 0.00 | 85 | 1016.5 |
| 20260906001604 | 23 | 0 | 0.0 | 3.2 | 0.00 | 0.00 | 0.00 | 84 | 1016.2 |
| 20260906001042 | 23 | 0 | 0.0 | 4.8 | 0.00 | 0.00 | 0.00 | 84 | 1016.0 |
| 20260906000544 | 24 | 124 | 1.6 | 4.8 | 0.00 | 0.00 | 0.00 | 83 | 1016.0 |
| 20260905235546 | 24 | 116 | 0.0 | 6.4 | 0.00 | 0.00 | 0.00 | 83 | 1015.9 |
| 20260905235043 | 24 | 0 | 3.2 | 6.4 | 0.00 | 0.00 | 0.00 | 82 | 1015.8 |
| 20260905234611 | 24 | 112 | 3.2 | 6.4 | 0.00 | 0.00 | 0.00 | 81 | 1015.7 |
| 20260905234046 | 24 | 0 | 1.6 | 6.4 | 0.00 | 0.00 | 0.00 | 81 | 1015.7 |
| 20260905233544 | 25 | 119 | 3.2 | 6.4 | 0.00 | 0.00 | 0.00 | 81 | 1015.6 |
| 20260905233103 | 25 | 108 | 1.6 | 6.4 | 0.00 | 0.00 | 0.00 | 80 | 1015.7 |
| 20260905232542 | 25 | 117 | 1.6 | 6.4 | 0.00 | 0.00 | 0.00 | 80 | 1015.6 |
| 20260905232043 | 25 | 115 | 1.6 | 4.8 | 0.00 | 0.00 | 0.00 | 81 | 1015.7 |
| 20260905231605 | 25 | 119 | 1.6 | 6.4 | 0.00 | 0.00 | 0.00 | 80 | 1015.7 |
| 20260905231042 | 25 | 78 | 1.6 | 6.4 | 0.00 | 0.00 | 0.00 | 79 | 1015.6 |
| 20260905230542 | 25 | 112 | 0.0 | 6.4 | 0.00 | 0.00 | 0.00 | 80 | 1015.5 |
| 20260905230129 | 25 | 115 | 1.6 | 6.4 | 0.00 | 0.00 | 0.00 | 79 | 1015.5 |
| 20260905225545 | 25 | 103 | 1.6 | 6.4 | 0.00 | 0.00 | 0.00 | 79 | 1015.5 |
| 20260905225043 | 25 | 105 | 3.2 | 6.4 | 0.00 | 0.00 | 0.00 | 78 | 1015.4 |
| 20260905224556 | 25 | 116 | 1.6 | 6.4 | 0.00 | 0.00 | 0.00 | 78 | 1015.2 |
| 20260905224043 | 25 | 90 | 1.6 | 6.4 | 0.00 | 0.00 | 0.00 | 79 | 1015.5 |
| 20260905223542 | 26 | 0 | 0.0 | 6.4 | 0.00 | 0.00 | 0.00 | 78 | 1015.4 |
| 20260905223054 | 26 | 107 | 1.6 | 11.3 | 0.00 | 0.00 | 0.00 | 78 | 1015.5 |
| 20260905222546 | 25 | 0 | 3.2 | 11.3 | 0.00 | 0.00 | 0.00 | 78 | 1015.4 |
| 20260905222042 | 25 | 92 | 3.2 | 11.3 | 0.00 | 0.00 | 0.00 | 76 | 1015.5 |
| 20260905221605 | 26 | 121 | 3.2 | 9.7 | 0.00 | 0.00 | 0.00 | 76 | 1015.5 |
| 20260905221043 | 26 | 111 | 3.2 | 9.7 | 0.00 | 0.00 | 0.00 | 76 | 1015.7 |
| 20260905220543 | 26 | 0 | 1.6 | 9.7 | 0.00 | 0.00 | 0.00 | 76 | 1015.7 |
| 20260905220059 | 26 | 111 | 1.6 | 6.4 | 0.00 | 0.00 | 0.00 | 78 | 1015.6 |
| 20260905215544 | 26 | 104 | 3.2 | 6.4 | 0.00 | 0.00 | 0.00 | 77 | 1015.5 |
| 20260905215045 | 26 | 88 | 0.0 | 6.4 | 0.00 | 0.00 | 0.00 | 78 | 1015.8 |
| 20260905214556 | 26 | 107 | 1.6 | 6.4 | 0.00 | 0.00 | 0.00 | 77 | 1015.7 |
| 20260905214044 | 25 | 103 | 3.2 | 6.4 | 0.00 | 0.00 | 0.00 | 77 | 1015.7 |
| 20260905213543 | 26 | 117 | 3.2 | 9.7 | 0.00 | 0.00 | 0.00 | 76 | 1015.8 |
| 20260905213103 | 26 | 105 | 3.2 | 12.9 | 0.00 | 0.00 | 0.00 | 76 | 1016.1 |
| 20260905212544 | 26 | 101 | 3.2 | 12.9 | 0.00 | 0.00 | 0.00 | 76 | 1016.2 |
| 20260905212042 | 26 | 109 | 3.2 | 9.7 | 0.00 | 0.00 | 0.00 | 76 | 1016.1 |
| 20260905211601 | 26 | 113 | 3.2 | 12.9 | 0.00 | 0.00 | 0.00 | 75 | 1016.3 |
| 20260905211043 | 26 | 115 | 1.6 | 12.9 | 0.00 | 0.00 | 0.00 | 76 | 1016.5 |
| 20260905210543 | 26 | 114 | 0.0 | 4.8 | 0.00 | 0.00 | 0.00 | 75 | 1016.7 |
| 20260905210052 | 26 | 0 | 0.0 | 4.8 | 0.00 | 0.00 | 0.00 | 77 | 1016.7 |
| 20260905205543 | 26 | 0 | 0.0 | 6.4 | 0.00 | 0.00 | 0.00 | 79 | 1016.8 |
| 20260905205046 | 26 | 123 | 1.6 | 6.4 | 0.00 | 0.00 | 0.00 | 79 | 1016.7 |
| 20260905204550 | 26 | 117 | 3.2 | 6.4 | 0.00 | 0.00 | 0.00 | 78 | 1017.0 |
| 20260905204043 | 26 | 115 | 3.2 | 6.4 | 0.00 | 0.00 | 0.00 | 79 | 1017.0 |
| 20260905203546 | 26 | 0 | 0.0 | 6.4 | 0.00 | 0.00 | 0.00 | 79 | 1017.1 |
| 20260905203101 | 26 | 115 | 0.0 | 6.4 | 0.00 | 0.00 | 0.00 | 78 | 1017.3 |
| 20260905202543 | 26 | 98 | 0.0 | 6.4 | 0.00 | 0.00 | 0.00 | 78 | 1017.4 |
| 20260905202043 | 26 | 115 | 3.2 | 6.4 | 0.00 | 0.00 | 0.00 | 77 | 1017.4 |
| 20260905201556 | 26 | 114 | 0.0 | 4.8 | 0.00 | 0.00 | 0.00 | 77 | 1017.4 |
| 20260905201042 | 26 | 0 | 0.0 | 6.4 | 0.00 | 0.00 | 0.00 | 78 | 1017.5 |
| 20260905200542 | 26 | 0 | 0.0 | 6.4 | 0.00 | 0.00 | 0.00 | 80 | 1017.6 |
| 20260905200104 | 26 | 0 | 0.0 | 6.4 | 0.00 | 0.00 | 0.00 | 80 | 1017.6 |